• In Germany
  • List of Countries
  • For 7 days
  • Water Temperature
  • Satellite Maps
  • Weather Map
  • Weather Widgets
  • user-avatar
    Login

    Hourly Weather Klagenfurt

    Today, 26 June, Monday

    Time Temperature Precipitation Wind Pressure Humidity
    00:00 +13°C° 0.1 mm 1 mps 689 mmHg 93%
    01:00 +13°C° 0 mm 1 mps 689 mmHg 93%
    02:00 +12°C° 0 mm 1 mps 689 mmHg 93%
    03:00 +12°C° 0 mm 1 mps 689 mmHg 93%
    04:00 +11°C° 0 mm 1 mps 689 mmHg 92%
    05:00 +13°C° 0 mm 1 mps 689 mmHg 89%
    06:00 +15°C° 0 mm 1 mps 690 mmHg 85%
    07:00 +16°C° 0 mm 0 mps 690 mmHg 81%
    08:00 +19°C° 0 mm 0 mps 691 mmHg 69%
    09:00 +23°C° 0 mm 1 mps 691 mmHg 57%
    10:00 +26°C° 0 mm 1 mps 692 mmHg 45%
    11:00 +26°C° 0 mm 1 mps 692 mmHg 42%
    12:00 +27°C° 0 mm 1 mps 692 mmHg 40%
    13:00 +28°C° 0 mm 1 mps 692 mmHg 37%
    14:00 +28°C° 0 mm 1 mps 691 mmHg 39%
    15:00 +28°C° 0 mm 1 mps 691 mmHg 40%
    16:00 +27°C° 0 mm 2 mps 691 mmHg 41%
    17:00 +26°C° 0 mm 1 mps 690 mmHg 52%
    18:00 +24°C° 0 mm 1 mps 690 mmHg 63%
    19:00 +22°C° 0 mm 1 mps 689 mmHg 73%
    20:00 +20°C° 0.1 mm 1 mps 689 mmHg 79%
    21:00 +16°C° 0.1 mm 1 mps 688 mmHg 84%
    22:00 +14°C° 0.1 mm 1 mps 688 mmHg 89%
    23:00 +14°C° 0 mm 1 mps 688 mmHg 90%

    Tomorrow, 27 June, Tuesday

    Time Temperature Precipitation Wind Pressure Humidity
    00:00 +13°C° 0 mm 1 mps 688 mmHg 90%
    01:00 +12°C° 0 mm 0 mps 688 mmHg 90%
    02:00 +12°C° 0 mm 0 mps 687 mmHg 90%
    03:00 +12°C° 0 mm 0 mps 687 mmHg 89%
    04:00 +12°C° 0 mm 0 mps 687 mmHg 89%
    05:00 +14°C° 0 mm 0 mps 688 mmHg 82%
    06:00 +17°C° 0 mm 0 mps 688 mmHg 75%
    07:00 +19°C° 0 mm 0 mps 689 mmHg 68%
    08:00 +23°C° 0 mm 1 mps 689 mmHg 60%
    09:00 +24°C° 0 mm 1 mps 689 mmHg 52%
    10:00 +26°C° 0 mm 2 mps 689 mmHg 44%
    11:00 +27°C° 0 mm 2 mps 689 mmHg 43%
    12:00 +27°C° 0 mm 2 mps 689 mmHg 42%
    13:00 +28°C° 0 mm 3 mps 689 mmHg 41%
    14:00 +28°C° 0.1 mm 3 mps 688 mmHg 43%
    15:00 +28°C° 0.1 mm 3 mps 688 mmHg 46%
    16:00 +28°C° 0.1 mm 3 mps 688 mmHg 48%
    17:00 +26°C° 0.1 mm 2 mps 687 mmHg 57%
    18:00 +24°C° 0.1 mm 2 mps 687 mmHg 67%
    19:00 +23°C° 0.1 mm 1 mps 686 mmHg 77%
    20:00 +21°C° 0 mm 1 mps 686 mmHg 82%
    21:00 +19°C° 0 mm 1 mps 686 mmHg 87%
    22:00 +16°C° 0 mm 1 mps 686 mmHg 93%
    23:00 +16°C° 0 mm 1 mps 686 mmHg 93%

    Day after tomorrow, 28 June, Wednesday

    Time Temperature Precipitation Wind Pressure Humidity
    00:00 +15°C° 0 mm 1 mps 685 mmHg 93%
    01:00 +15°C° 0 mm 1 mps 685 mmHg 93%
    02:00 +15°C° 0 mm 1 mps 685 mmHg 93%
    03:00 +15°C° 0 mm 1 mps 684 mmHg 93%
    04:00 +14°C° 0 mm 1 mps 684 mmHg 93%
    05:00 +16°C° 0 mm 1 mps 684 mmHg 87%
    06:00 +19°C° 0 mm 1 mps 685 mmHg 82%
    07:00 +21°C° 0 mm 1 mps 685 mmHg 77%
    08:00 +23°C° 0.1 mm 2 mps 685 mmHg 71%
    09:00 +24°C° 0.1 mm 2 mps 685 mmHg 66%
    10:00 +26°C° 0.1 mm 3 mps 685 mmHg 61%
    11:00 +26°C° 0.4 mm 3 mps 684 mmHg 59%
    12:00 +27°C° 0.4 mm 3 mps 684 mmHg 57%
    13:00 +27°C° 0.4 mm 3 mps 684 mmHg 55%
    14:00 +27°C° 0.9 mm 3 mps 683 mmHg 58%
    15:00 +26°C° 0.9 mm 3 mps 683 mmHg 61%
    16:00 +26°C° 0.9 mm 3 mps 683 mmHg 64%
    17:00 +24°C° 4.2 mm 2 mps 682 mmHg 74%
    18:00 +20°C° 4.2 mm 2 mps 681 mmHg 85%
    19:00 +19°C° 4.2 mm 1 mps 681 mmHg 95%
    20:00 +19°C° 3.5 mm 1 mps 680 mmHg 96%
    21:00 +18°C° 3.5 mm 1 mps 680 mmHg 96%
    22:00 +16°C° 3.5 mm 1 mps 680 mmHg 97%
    23:00 +16°C° 1.4 mm 2 mps 679 mmHg 96%

    29 June, Thursday

    Time Temperature Precipitation Wind Pressure Humidity
    00:00 +16°C° 1.4 mm 2 mps 679 mmHg 95%
    01:00 +16°C° 1.4 mm 2 mps 679 mmHg 94%
    02:00 +15°C° 0.8 mm 2 mps 678 mmHg 95%
    03:00 +15°C° 0.8 mm 2 mps 678 mmHg 95%
    04:00 +14°C° 0.8 mm 2 mps 678 mmHg 95%
    05:00 +15°C° 0.4 mm 2 mps 678 mmHg 93%
    06:00 +16°C° 0.4 mm 3 mps 679 mmHg 91%
    07:00 +17°C° 0.4 mm 3 mps 679 mmHg 89%
    08:00 +18°C° 0.6 mm 3 mps 680 mmHg 86%
    09:00 +18°C° 0.6 mm 4 mps 680 mmHg 82%
    10:00 +19°C° 0.6 mm 4 mps 680 mmHg 78%
    11:00 +19°C° 0.5 mm 4 mps 681 mmHg 73%
    12:00 +20°C° 0.5 mm 5 mps 681 mmHg 69%
    13:00 +21°C° 0.5 mm 5 mps 681 mmHg 64%
    14:00 +21°C° 0.3 mm 5 mps 682 mmHg 63%
    15:00 +21°C° 0.3 mm 5 mps 682 mmHg 61%
    16:00 +21°C° 0.3 mm 4 mps 682 mmHg 59%
    17:00 +20°C° 0.2 mm 4 mps 682 mmHg 64%
    18:00 +19°C° 0.2 mm 3 mps 682 mmHg 68%
    19:00 +18°C° 0.2 mm 2 mps 683 mmHg 72%
    20:00 +17°C° 0 mm 2 mps 683 mmHg 75%
    21:00 +15°C° 0 mm 2 mps 683 mmHg 78%
    22:00 +14°C° 0 mm 2 mps 683 mmHg 81%
    23:00 +13°C° 0 mm 2 mps 683 mmHg 83%

    30 June, Friday

    Time Temperature Precipitation Wind Pressure Humidity
    00:00 +13°C° 0 mm 2 mps 684 mmHg 86%
    01:00 +12°C° 0 mm 1 mps 684 mmHg 88%
    02:00 +12°C° 0 mm 1 mps 684 mmHg 89%
    03:00 +11°C° 0 mm 1 mps 684 mmHg 90%
    04:00 +11°C° 0 mm 1 mps 684 mmHg 90%
    05:00 +13°C° 0 mm 1 mps 684 mmHg 85%
    06:00 +15°C° 0 mm 1 mps 685 mmHg 79%
    07:00 +17°C° 0 mm 2 mps 686 mmHg 74%
    08:00 +18°C° 0.3 mm 2 mps 686 mmHg 70%
    09:00 +19°C° 0.3 mm 3 mps 687 mmHg 65%
    10:00 +20°C° 0.3 mm 3 mps 687 mmHg 61%
    11:00 +20°C° 0.2 mm 4 mps 687 mmHg 56%
    12:00 +21°C° 0.2 mm 4 mps 687 mmHg 52%
    13:00 +22°C° 0.2 mm 5 mps 687 mmHg 47%
    14:00 +21°C° 0.1 mm 5 mps 687 mmHg 48%
    15:00 +21°C° 0.1 mm 4 mps 687 mmHg 48%
    16:00 +21°C° 0.1 mm 4 mps 686 mmHg 49%
    17:00 +19°C° 0.2 mm 4 mps 686 mmHg 57%
    18:00 +18°C° 0.2 mm 3 mps 686 mmHg 65%
    19:00 +17°C° 0.2 mm 2 mps 686 mmHg 73%
    20:00 +16°C° 0.1 mm 2 mps 686 mmHg 78%
    21:00 +14°C° 0.1 mm 2 mps 686 mmHg 83%
    22:00 +13°C° 0.1 mm 1 mps 686 mmHg 88%
    23:00 +13°C° 0.1 mm 1 mps 686 mmHg 89%

    1 July, Saturday

    Time Temperature Precipitation Wind Pressure Humidity
    00:00 +13°C° 0.1 mm 1 mps 685 mmHg 89%
    01:00 +12°C° 0.1 mm 1 mps 685 mmHg 89%
    02:00 +12°C° 0.2 mm 1 mps 685 mmHg 90%
    03:00 +12°C° 0.2 mm 1 mps 685 mmHg 91%
    04:00 +12°C° 0.2 mm 1 mps 684 mmHg 91%
    05:00 +13°C° 0.1 mm 1 mps 685 mmHg 86%
    06:00 +15°C° 0.1 mm 1 mps 685 mmHg 81%
    07:00 +16°C° 0.1 mm 1 mps 686 mmHg 76%
    08:00 +19°C° 0.1 mm 1 mps 686 mmHg 65%
    09:00 +21°C° 0.1 mm 1 mps 687 mmHg 54%
    10:00 +21°C° 0.1 mm 2 mps 687 mmHg 43%
    11:00 +23°C° 0 mm 2 mps 687 mmHg 41%
    12:00 +24°C° 0 mm 2 mps 687 mmHg 38%
    13:00 +24°C° 0 mm 3 mps 687 mmHg 36%
    14:00 +24°C° 0 mm 3 mps 687 mmHg 38%
    15:00 +24°C° 0 mm 3 mps 687 mmHg 40%
    16:00 +23°C° 0 mm 2 mps 687 mmHg 42%
    17:00 +21°C° 0.2 mm 2 mps 687 mmHg 54%
    18:00 +20°C° 0.2 mm 1 mps 687 mmHg 66%
    19:00 +18°C° 0.2 mm 1 mps 687 mmHg 78%
    20:00 +15°C° 0.2 mm 1 mps 688 mmHg 82%
    21:00 +14°C° 0.2 mm 1 mps 688 mmHg 85%
    22:00 +12°C° 0.2 mm 1 mps 688 mmHg 89%
    23:00 +12°C° 0.2 mm 1 mps 688 mmHg 90%
    Show more